Hancock, MI

6:03 PM EDT on October 01, 2016 (GMT -0400)
Houghton County Memorial

Weather History for KCMX - March, 2014

Change the Weather History Date:

Sunday, March 9, 2014

  Actual Average Record
Temperature  
Mean Temperature 22 °F -  
Max Temperature 37 °F 30 °F 50 °F (1977)
Min Temperature 8 °F 14 °F -17 °F (1984)
Degree Days  
Heating Degree Days 42    
Moisture  
Dew Point 15 °F    
Average Humidity 63    
Maximum Humidity 70    
Minimum Humidity 54    
Precipitation  
Precipitation 0.00 in - - ()
Sea Level Pressure  
Sea Level Pressure 29.77 in    
Wind  
Wind Speed 10 mph (WSW)    
Max Wind Speed 20 mph    
Max Gust Speed 28 mph    
Visibility 10 miles    
Events      
Averages and records for this station are not official NWS values.
T = Trace of Precipitation, MM = Missing Value Source: NWS Daily Summary

Daily Weather History Graph

Daily Weather History Graph

Search for Another Location

Airport or City:

Trip Planner

Search our weather history database for the weather conditions in past years. The results will help you decide how hot, cold, wet, or windy it might be!

Date:

Astronomy

Mar. 09, 2014 Rise Set
Actual Time 8:18 AM EDT 7:51 PM EDT
Civil Twilight 7:48 AM EDT 8:21 PM EDT
Nautical Twilight 7:12 AM EDT 8:56 PM EDT
Astronomical Twilight 6:37 AM EDT 9:32 PM EDT
Moon 1:26 PM EDT (3/9) 4:01 AM EDT (3/9)
Length of Visible Light 12h 33m
Length of Day
11h 32m
First Quarter, 61% of the Moon is Illuminated
Mar 9
First Quarter
Mar 16
Full
Mar 23
Last Quarter
Mar 30
New
Apr 7
First Quarter

Hourly Weather History & Observations

Time (EDT) Temp. Windchill Dew Point Humidity Pressure Visibility Wind Dir Wind Speed Gust Speed Precip Events Conditions
12:53 AM 12.0 °F 0.5 °F 1.9 °F 64% 30.10 in 10.0 mi West 8.1 mph - N/A   Clear
1:53 AM 8.1 °F -5.3 °F -0.9 °F 67% 30.09 in 10.0 mi West 9.2 mph - N/A   Clear
3:53 AM 14.0 °F 2.0 °F 3.0 °F 62% 30.06 in 10.0 mi West 9.2 mph - N/A   Clear
4:53 AM 16.0 °F 3.6 °F 5.0 °F 62% 30.03 in 10.0 mi West 10.4 mph - N/A   Clear
5:53 AM 12.0 °F 2.7 °F 3.9 °F 70% 30.01 in 10.0 mi SSW 5.8 mph - N/A   Scattered Clouds
6:53 AM 15.1 °F 6.4 °F 5.0 °F 64% 29.99 in 10.0 mi SSW 5.8 mph - N/A   Overcast
7:53 AM 15.1 °F 3.3 °F 6.1 °F 68% 29.94 in 10.0 mi SSW 9.2 mph - N/A   Overcast
8:53 AM 16.0 °F 8.8 °F 7.0 °F 68% 29.91 in 10.0 mi South 4.6 mph - N/A   Overcast
9:53 AM 17.1 °F 10.0 °F 8.1 °F 68% 29.86 in 10.0 mi South 4.6 mph - N/A   Overcast
10:53 AM 19.9 °F 12.1 °F 10.0 °F 65% 29.81 in 10.0 mi South 5.8 mph - N/A   Overcast
11:53 AM 24.1 °F 13.7 °F 12.0 °F 60% 29.75 in 10.0 mi SSW 10.4 mph - N/A   Overcast
12:53 PM 27.0 °F 18.0 °F 15.1 °F 61% 29.70 in 10.0 mi SSW 9.2 mph - N/A   Overcast
1:53 PM 33.1 °F 26.9 °F 18.0 °F 54% 29.64 in 10.0 mi SSW 6.9 mph - N/A   Clear
2:53 PM 37.9 °F 29.2 °F 23.0 °F 55% 29.61 in 10.0 mi WNW 15.0 mph - N/A   Scattered Clouds
3:53 PM 35.1 °F 25.9 °F 24.1 °F 64% 29.58 in 10.0 mi WNW 13.8 mph - N/A   Clear
4:53 PM 36.0 °F 26.0 °F 25.0 °F 64% 29.57 in 10.0 mi West 17.3 mph 27.6 mph N/A   Clear
5:53 PM 36.0 °F 27.1 °F 25.0 °F 64% 29.58 in 10.0 mi West 13.8 mph 23.0 mph N/A   Clear
6:53 PM 37.0 °F 26.7 °F 25.0 °F 62% 29.58 in 10.0 mi West 19.6 mph - N/A   Mostly Cloudy
7:53 PM 37.9 °F 28.9 °F 25.0 °F 60% 29.60 in 10.0 mi West 16.1 mph - N/A   Overcast
8:53 PM 37.9 °F 29.2 °F 26.1 °F 62% 29.61 in 10.0 mi WNW 15.0 mph - N/A   Overcast
9:53 PM 37.9 °F 30.0 °F 25.0 °F 60% 29.61 in 10.0 mi WNW 12.7 mph - N/A   Clear
10:53 PM 37.9 °F 28.5 °F 26.1 °F 62% 29.61 in 10.0 mi WNW 17.3 mph - N/A   Overcast
11:53 PM 37.9 °F 28.5 °F 26.1 °F 62% 29.60 in 10.0 mi WNW 17.3 mph - N/A   Scattered Clouds
12:53 AM 37.0 °F 28.5 °F 26.1 °F 65% 29.59 in 10.0 mi WNW 13.8 mph - N/A   Mostly Cloudy